Location: Fort Wayne
(41.1310°N, 85.1290°W)
Time: 20:22:51
(UTC-04:00)

Courier 1B Rocket - All Passes

Search period start: 26 May 2016 00:00
Search period end: 05 June 2016 00:00
Orbit: 921 x 1202 km, 28.2° (Epoch: 25 May)

Date Brightness Start Highest point End Pass type
(mag) Time Alt. Az. Time Alt. Az. Time Alt. Az.
26 May - 07:28:15 10° SSW 07:32:12 17° SSE 07:36:07 10° SE daylight
26 May - 09:19:45 10° SW 09:24:40 25° S 09:29:37 10° SE daylight
26 May - 11:12:40 10° WSW 11:17:11 21° SSW 11:21:49 10° SE daylight
26 May - 13:09:00 10° SSW 13:09:36 10° SSW 13:10:12 10° SSW daylight
27 May - 06:28:29 10° S 06:31:33 14° SSE 06:34:35 10° SE daylight
27 May - 08:19:09 10° SW 08:23:59 23° S 08:28:46 10° ESE daylight
27 May - 10:11:43 10° WSW 10:16:30 23° S 10:21:20 10° SE daylight
27 May - 12:05:57 10° SW 12:08:56 14° SSW 12:11:58 10° S daylight
28 May - 05:30:02 10° SSE 05:30:54 10° SSE 05:31:46 10° SSE visible
28 May - 07:18:41 10° SW 07:23:18 21° S 07:27:50 10° ESE daylight
28 May - 09:10:53 10° SW 09:15:49 25° S 09:20:45 10° SE daylight
28 May - 11:04:24 10° SW 11:08:17 17° SSW 11:12:13 10° SSE daylight
29 May - 06:18:23 10° SSW 06:22:37 18° SSE 06:26:45 10° ESE daylight
29 May - 08:10:06 10° SW 08:15:07 25° S 08:20:03 10° SE daylight
29 May - 10:03:11 10° WSW 10:07:37 20° SSW 10:12:04 10° SSE daylight
30 May - 05:18:23 10° SSW 05:21:55 15° SSE 05:25:22 10° SE visible
30 May - 07:09:23 10° SW 07:14:25 24° S 07:19:18 10° ESE daylight
30 May - 09:02:09 10° WSW 09:06:57 23° S 09:11:43 10° SE daylight
30 May - 10:56:39 10° SW 10:59:20 13° SSW 11:02:02 10° S daylight
31 May - 04:19:09 10° S 04:21:13 11° SSE 04:23:16 10° SE visible
31 May - 06:08:47 10° SW 06:13:42 22° S 06:18:26 10° ESE daylight
31 May - 08:01:11 10° WSW 08:06:16 25° S 08:11:13 10° SE daylight
31 May - 09:54:54 10° SW 09:58:42 17° SSW 10:02:30 10° SSE daylight
01 Jun - 05:08:20 10° SSW 05:12:58 19° SSE 05:17:26 10° ESE visible
01 Jun - 07:00:17 10° SW 07:05:33 26° S 07:10:37 10° SE daylight
01 Jun - 08:53:33 10° WSW 08:58:03 20° SSW 09:02:29 10° SSE daylight
02 Jun - 04:08:10 10° SSW 04:12:14 16° SSE 04:16:09 10° SE visible
02 Jun - 05:59:27 10° SW 06:04:49 25° S 06:09:55 10° ESE daylight
02 Jun - 07:52:23 10° WSW 07:57:23 23° S 08:02:13 10° SE daylight
02 Jun - 09:47:08 10° SW 09:49:45 13° SSW 09:52:21 10° S daylight
03 Jun - 03:08:33 10° S 03:11:29 13° SSE 03:14:20 10° SE visible
03 Jun - 04:58:44 10° SW 05:04:02 23° S 05:09:05 10° ESE visible
03 Jun - 06:51:18 10° WSW 06:56:39 26° S 07:01:48 10° SE daylight
03 Jun - 08:45:12 10° WSW 08:49:07 17° SSW 08:52:58 10° SSE daylight
04 Jun - 03:58:09 10° SSW 04:03:15 21° SSE 04:08:07 10° ESE visible
04 Jun - 05:50:18 10° SW 05:55:54 27° S 06:01:14 10° SE daylight
04 Jun - 07:43:44 10° WSW 07:48:28 21° SSW 07:53:02 10° SSE daylight
